QPF
0.24 0.24 0.24 0.26 0.26 0.24 0.20 0.16 0.12 0.09 0.07 0.06 0.06 0.06 0.06 0.04 0.04 0.02 0.01 0.00 0.00 0.00 0.00 0.00 0.00 0.00 0.00 0.00 0.00 0.01 0.01 0.02 0.02 0.03 0.05 0.08 0.10 0.09
0.22 0.22 0.22 0.24 0.22 0.19 0.15 0.12 0.09 0.07 0.06 0.04 0.03 0.04 0.04 0.04 0.04 0.03 0.01 0.00 0.00 0.00 0.00 0.00 0.00 0.00 0.00 0.00 0.00 0.00 0.00 0.00 0.01 0.01 0.02 0.04 0.07 0.11
0.22 0.21 0.20 0.20 0.18 0.14 0.11 0.09 0.06 0.04 0.02 0.02 0.02 0.02 0.01 0.01 0.00 0.00 0.00 0.00 0.00 0.00 0.00 0.00 0.00 0.00 0.00 0.00 0.00 0.00 0.00 0.00 0.00 0.00 0.01 0.02 0.05 0.08
0.23 0.20 0.17 0.16 0.14 0.11 0.09 0.06 0.04 0.02 0.01 0.01 0.01 0.01 0.00 0.00 0.00 0.00 0.00 0.00 0.00 0.00 0.00 0.00 0.00 0.00 0.00 0.00 0.00 0.00 0.00 0.00 0.00 0.00 0.00 0.01 0.04 0.07
0.29 0.24 0.18 0.14 0.10 0.07 0.04 0.03 0.02 0.01 0.01 0.00 0.00 0.00 0.00 0.00 0.00 0.00 0.00 0.00 0.00 0.00 0.00 0.00 0.00 0.00 0.00 0.00 0.00 0.00 0.00 0.00 0.00 0.00 0.01 0.02 0.03 0.07
0.27 0.21 0.15 0.10 0.07 0.04 0.02 0.01 0.01 0.00 0.00 0.00 0.00 0.00 0.00 0.00 0.00 0.00 0.00 0.00 0.00 0.00 0.00 0.00 0.00 0.00 0.00 0.00 0.00 0.00 0.00 0.00 0.00 0.01 0.01 0.01 0.03 0.08
0.19 0.13 0.09 0.06 0.04 0.02 0.01 0.01 0.00 0.00 0.00 0.00 0.00 0.00 0.00 0.00 0.00 0.00 0.00 0.00 0.00 0.00 0.00 0.00 0.01 0.01 0.01 0.02 0.01 0.01 0.00 0.00 0.00 0.00 0.01 0.02 0.04 0.08
0.11 0.09 0.05 0.03 0.02 0.01 0.00 0.00 0.00 0.00 0.00 0.00 0.00 0.00 0.00 0.00 0.00 0.00 0.00 0.00 0.00 0.00 0.00 0.00 0.01 0.01 0.01 0.02 0.02 0.02 0.01 0.01 0.01 0.00 0.01 0.02 0.05 0.10
0.05 0.04 0.03 0.02 0.01 0.00 0.00 0.00 0.00 0.00 0.00 0.00 0.00 0.00 0.00 0.00 0.00 0.00 0.00 0.00 0.00 0.00 0.00 0.00 0.01 0.01 0.01 0.01 0.01 0.02 0.01 0.01 0.01 0.01 0.01 0.02 0.05 0.11
0.02 0.01 0.01 0.01 0.00 0.00 0.00 0.00 0.00 0.00 0.00 0.00 0.00 0.00 0.00 0.00 0.00 0.00 0.00 0.00 0.00 0.00 0.00 0.00 0.00 0.00 0.01 0.01 0.02 0.02 0.02 0.01 0.01 0.01 0.02 0.02 0.05 0.12
0.01 0.01 0.00 0.00 0.00 0.00 0.00 0.00 0.00 0.00 0.00 0.00 0.00 0.00 0.00 0.00 0.00 0.00 0.00 0.00 0.00 0.00 0.00 0.00 0.00 0.00 0.01 0.01 0.02 0.02 0.02 0.02 0.02 0.03 0.04 0.05 0.07 0.12
0.00 0.00 0.00 0.00 0.00 0.00 0.00 0.00 0.00 0.00 0.00 0.00 0.00 0.00 0.00 0.00 0.00 0.00 0.00 0.00 0.00 0.00 0.00 0.00 0.00 0.00 0.01 0.02 0.02 0.01 0.02 0.02 0.03 0.03 0.05 0.09 0.12 0.12
0.00 0.00 0.00 0.00 0.00 0.00 0.00 0.00 0.00 0.00 0.00 0.00 0.00 0.00 0.00 0.00 0.00 0.00 0.00 0.00 0.00 0.00 0.00 0.00 0.00 0.00 0.01 0.02 0.03 0.03 0.03 0.04 0.04 0.06 0.08 0.13 0.19 0.19
0.00 0.00 0.00 0.00 0.00 0.00 0.00 0.00 0.00 0.00 0.00 0.00 0.00 0.00 0.00 0.00 0.00 0.00 0.00 0.00 0.00 0.00 0.01 0.01 0.02 0.02 0.01 0.01 0.02 0.05 0.06 0.06 0.07 0.10 0.14 0.18 0.21 0.24
0.00 0.00 0.00 0.00 0.00 0.00 0.00 0.00 0.00 0.00 0.00 0.00 0.00 0.00 0.00 0.00 0.00 0.00 0.00 0.00 0.00 0.00 0.01 0.01 0.03 0.03 0.02 0.02 0.03 0.05 0.06 0.08 0.08 0.10 0.16 0.20 0.22 0.24
0.00 0.00 0.00 0.00 0.00 0.00 0.00 0.00 0.00 0.00 0.00 0.00 0.00 0.00 0.00 0.00 0.00 0.00 0.00 0.00 0.00 0.00 0.01 0.02 0.02 0.01 0.01 0.02 0.03 0.04 0.05 0.06 0.09 0.10 0.13 0.19 0.23 0.28
0.00 0.00 0.00 0.00 0.00 0.00 0.00 0.00 0.00 0.00 0.00 0.00 0.00 0.00 0.00 0.00 0.00 0.00 0.00 0.00 0.00 0.00 0.01 0.02 0.01 0.00 0.00 0.01 0.02 0.03 0.03 0.04 0.05 0.08 0.11 0.16 0.21 0.26
0.00 0.00 0.00 0.00 0.00 0.00 0.00 0.00 0.00 0.00 0.00 0.00 0.00 0.00 0.00 0.00 0.00 0.00 0.00 0.00 0.00 0.00 0.00 0.00 0.01 0.00 0.00 0.01 0.01 0.01 0.02 0.03 0.04 0.05 0.08 0.13 0.18 0.20
0.00 0.00 0.00 0.00 0.00 0.00 0.00 0.00 0.00 0.00 0.00 0.00 0.00 0.00 0.00 0.00 0.00 0.00 0.00 0.00 0.00 0.00 0.00 0.00 0.00 0.00 0.00 0.01 0.02 0.01 0.01 0.01 0.02 0.04 0.05 0.09 0.15 0.17
0.00 0.00 0.00 0.00 0.00 0.00 0.00 0.00 0.00 0.00 0.00 0.00 0.00 0.00 0.00 0.00 0.00 0.00 0.00 0.00 0.00 0.00 0.00 0.00 0.00 0.00 0.01 0.01 0.01 0.01 0.00 0.01 0.02 0.03 0.05 0.06 0.09 0.13
0.00 0.00 0.00 0.00 0.00 0.00 0.00 0.00 0.00 0.00 0.00 0.00 0.00 0.00 0.00 0.00 0.00 0.00 0.00 0.00 0.00 0.00 0.00 0.00 0.00 0.00 0.01 0.01 0.01 0.01 0.00 0.01 0.02 0.03 0.04 0.05 0.07 0.08
0.00 0.00 0.00 0.00 0.00 0.00 0.00 0.00 0.00 0.00 0.00 0.00 0.00 0.00 0.00 0.00 0.00 0.00 0.00 0.00 0.00 0.00 0.00 0.00 0.00 0.00 0.00 0.00 0.01 0.00 0.01 0.00 0.01 0.02 0.02 0.03 0.03 0.05
0.00 0.00 0.00 0.00 0.00 0.00 0.00 0.00 0.00 0.00 0.00 0.00 0.00 0.00 0.00 0.00 0.00 0.00 0.00 0.00 0.00 0.00 0.00 0.00 0.00 0.00 0.00 0.00 0.01 0.00 0.00 0.01 0.01 0.01 0.01 0.01 0.01 0.02
MSLP
1003.45 1004.19 1004.98 1005.74 1006.42 1007.00 1007.46 1007.81 1008.07 1008.25 1008.39 1008.49 1008.57 1008.64 1008.68 1008.71 1008.73 1008.73 1008.74 1008.77 1008.82 1008.91 1009.04 1009.21 1009.41 1009.62 1009.83 1010.02 1010.17 1010.27 1010.33 1010.35 1010.32 1010.27 1010.20 1010.11 1010.04 1009.98
1002.66 1003.42 1004.22 1005.00 1005.72 1006.34 1006.87 1007.32 1007.68 1007.99 1008.26 1008.49 1008.69 1008.85 1008.96 1009.01 1009.02 1008.99 1008.94 1008.89 1008.85 1008.86 1008.92 1009.03 1009.19 1009.39 1009.59 1009.80 1009.97 1010.11 1010.19 1010.22 1010.19 1010.12 1010.00 1009.85 1009.68 1009.52
1002.22 1002.96 1003.74 1004.50 1005.21 1005.85 1006.41 1006.92 1007.38 1007.80 1008.19 1008.55 1008.87 1009.14 1009.32 1009.43 1009.45 1009.40 1009.29 1009.16 1009.04 1008.95 1008.92 1008.95 1009.04 1009.19 1009.36 1009.55 1009.73 1009.87 1009.97 1010.00 1009.97 1009.86 1009.70 1009.48 1009.23 1008.97
1002.23 1002.91 1003.62 1004.32 1004.99 1005.60 1006.17 1006.70 1007.22 1007.73 1008.23 1008.70 1009.14 1009.50 1009.77 1009.93 1009.98 1009.92 1009.78 1009.58 1009.37 1009.19 1009.05 1008.98 1008.98 1009.05 1009.16 1009.30 1009.44 1009.56 1009.63 1009.65 1009.59 1009.45 1009.24 1008.96 1008.63 1008.28
1002.69 1003.28 1003.90 1004.51 1005.09 1005.65 1006.18 1006.71 1007.25 1007.81 1008.38 1008.95 1009.47 1009.92 1010.26 1010.48 1010.55 1010.50 1010.33 1010.10 1009.82 1009.54 1009.30 1009.13 1009.02 1008.98 1008.99 1009.05 1009.12 1009.18 1009.20 1009.17 1009.07 1008.89 1008.62 1008.28 1007.88 1007.45
1003.56 1004.04 1004.54 1005.04 1005.52 1005.99 1006.46 1006.95 1007.48 1008.05 1008.65 1009.26 1009.83 1010.34 1010.73 1010.99 1011.10 1011.06 1010.89 1010.63 1010.30 1009.95 1009.63 1009.35 1009.13 1008.97 1008.87 1008.82 1008.78 1008.75 1008.70 1008.60 1008.44 1008.20 1007.89 1007.49 1007.04 1006.55
1004.70 1005.07 1005.45 1005.83 1006.20 1006.57 1006.97 1007.40 1007.88 1008.42 1009.01 1009.61 1010.19 1010.71 1011.13 1011.41 1011.55 1011.53 1011.37 1011.09 1010.75 1010.36 1009.97 1009.61 1009.29 1009.02 1008.80 1008.63 1008.48 1008.35 1008.19 1008.01 1007.78 1007.48 1007.12 1006.68 1006.19 1005.67
1005.95 1006.22 1006.49 1006.77 1007.04 1007.32 1007.63 1007.98 1008.39 1008.87 1009.40 1009.95 1010.50 1010.99 1011.40 1011.68 1011.83 1011.83 1011.69 1011.44 1011.09 1010.70 1010.28 1009.87 1009.48 1009.12 1008.81 1008.52 1008.26 1008.02 1007.76 1007.49 1007.19 1006.83 1006.42 1005.96 1005.44 1004.91
1007.14 1007.32 1007.52 1007.71 1007.91 1008.11 1008.35 1008.63 1008.96 1009.35 1009.79 1010.27 1010.74 1011.17 1011.53 1011.80 1011.94 1011.95 1011.84 1011.63 1011.32 1010.95 1010.54 1010.11 1009.69 1009.28 1008.89 1008.52 1008.16 1007.82 1007.47 1007.12 1006.74 1006.34 1005.89 1005.41 1004.90 1004.37
1008.11 1008.25 1008.40 1008.56 1008.71 1008.88 1009.06 1009.27 1009.53 1009.83 1010.17 1010.54 1010.91 1011.26 1011.56 1011.78 1011.91 1011.93 1011.85 1011.68 1011.42 1011.10 1010.74 1010.34 1009.92 1009.49 1009.06 1008.64 1008.21 1007.79 1007.38 1006.95 1006.52 1006.07 1005.60 1005.12 1004.61 1004.12
1008.80 1008.93 1009.09 1009.24 1009.39 1009.55 1009.71 1009.88 1010.07 1010.29 1010.54 1010.80 1011.07 1011.32 1011.54 1011.70 1011.80 1011.83 1011.78 1011.66 1011.47 1011.22 1010.91 1010.56 1010.18 1009.77 1009.33 1008.88 1008.42 1007.95 1007.48 1007.00 1006.52 1006.05 1005.56 1005.08 1004.60 1004.15
1009.22 1009.38 1009.57 1009.75 1009.93 1010.11 1010.27 1010.42 1010.58 1010.74 1010.90 1011.08 1011.24 1011.40 1011.54 1011.65 1011.72 1011.75 1011.73 1011.65 1011.52 1011.33 1011.10 1010.81 1010.48 1010.10 1009.68 1009.23 1008.75 1008.25 1007.75 1007.24 1006.73 1006.23 1005.75 1005.28 1004.83 1004.41
1009.44 1009.65 1009.89 1010.12 1010.35 1010.56 1010.74 1010.91 1011.05 1011.17 1011.28 1011.38 1011.48 1011.57 1011.64 1011.70 1011.74 1011.76 1011.75 1011.71 1011.62 1011.50 1011.32 1011.10 1010.82 1010.48 1010.09 1009.65 1009.17 1008.67 1008.14 1007.62 1007.09 1006.59 1006.10 1005.64 1005.22 1004.84
1009.56 1009.82 1010.10 1010.39 1010.67 1010.92 1011.14 1011.33 1011.47 1011.59 1011.67 1011.74 1011.79 1011.83 1011.86 1011.88 1011.90 1011.91 1011.90 1011.87 1011.82 1011.73 1011.60 1011.42 1011.18 1010.88 1010.52 1010.10 1009.64 1009.13 1008.61 1008.07 1007.55 1007.03 1006.55 1006.11 1005.71 1005.37
1009.64 1009.95 1010.27 1010.60 1010.91 1011.21 1011.46 1011.67 1011.84 1011.97 1012.05 1012.11 1012.15 1012.17 1012.18 1012.19 1012.19 1012.19 1012.18 1012.16 1012.11 1012.04 1011.93 1011.77 1011.55 1011.28 1010.94 1010.55 1010.10 1009.61 1009.09 1008.56 1008.04 1007.53 1007.05 1006.62 1006.25 1005.93
1009.74 1010.07 1010.41 1010.76 1011.09 1011.41 1011.69 1011.93 1012.12 1012.28 1012.39 1012.47 1012.53 1012.56 1012.58 1012.58 1012.58 1012.57 1012.55 1012.52 1012.47 1012.39 1012.27 1012.12 1011.91 1011.65 1011.33 1010.95 1010.52 1010.05 1009.56 1009.04 1008.53 1008.04 1007.57 1007.16 1006.79 1006.49
1009.84 1010.17 1010.51 1010.86 1011.19 1011.51 1011.80 1012.07 1012.29 1012.48 1012.64 1012.76 1012.85 1012.92 1012.97 1012.99 1013.00 1012.99 1012.96 1012.92 1012.85 1012.75 1012.62 1012.45 1012.24 1011.98 1011.67 1011.31 1010.91 1010.47 1010.00 1009.51 1009.03 1008.55 1008.10 1007.70 1007.34 1007.04
1009.91 1010.22 1010.55 1010.87 1011.18 1011.49 1011.79 1012.06 1012.31 1012.54 1012.75 1012.93 1013.08 1013.20 1013.29 1013.35 1013.38 1013.38 1013.35 1013.29 1013.20 1013.09 1012.93 1012.75 1012.53 1012.27 1011.97 1011.64 1011.26 1010.85 1010.42 1009.97 1009.52 1009.07 1008.65 1008.25 1007.90 1007.59
1009.89 1010.18 1010.47 1010.76 1011.05 1011.34 1011.62 1011.90 1012.18 1012.45 1012.70 1012.94 1013.16 1013.34 1013.49 1013.60 1013.67 1013.69 1013.67 1013.61 1013.52 1013.38 1013.22 1013.02 1012.80 1012.54 1012.26 1011.94 1011.60 1011.24 1010.85 1010.45 1010.03 1009.62 1009.22 1008.83 1008.48 1008.15
1009.73 1010.01 1010.27 1010.53 1010.78 1011.05 1011.32 1011.61 1011.90 1012.20 1012.51 1012.80 1013.08 1013.33 1013.54 1013.71 1013.83 1013.89 1013.90 1013.86 1013.77 1013.63 1013.47 1013.27 1013.05 1012.81 1012.55 1012.26 1011.96 1011.64 1011.29 1010.94 1010.57 1010.19 1009.81 1009.44 1009.08 1008.74
1009.43 1009.69 1009.93 1010.17 1010.40 1010.64 1010.91 1011.19 1011.50 1011.83 1012.17 1012.52 1012.86 1013.17 1013.45 1013.68 1013.85 1013.97 1014.02 1014.01 1013.95 1013.84 1013.69 1013.52 1013.31 1013.09 1012.86 1012.60 1012.34 1012.05 1011.76 1011.44 1011.11 1010.77 1010.42 1010.06 1009.70 1009.35
1009.00 1009.26 1009.49 1009.70 1009.92 1010.15 1010.40 1010.68 1011.00 1011.35 1011.72 1012.11 1012.50 1012.87 1013.21 1013.50 1013.74 1013.92 1014.03 1014.08 1014.06 1014.00 1013.89 1013.75 1013.58 1013.39 1013.18 1012.96 1012.73 1012.48 1012.22 1011.95 1011.65 1011.34 1011.02 1010.68 1010.32 1009.96
1008.47 1008.73 1008.95 1009.16 1009.36 1009.58 1009.82 1010.10 1010.42 1010.78 1011.17 1011.59 1012.01 1012.43 1012.83 1013.19 1013.50 1013.75 1013.93 1014.05 1014.10 1014.10 1014.05 1013.95 1013.83 1013.68 1013.50 1013.31 1013.11 1012.89 1012.66 1012.42 1012.16 1011.88 1011.58 1011.26 1010.92 1010.56
Thickness
5700 5699 5698 5696 5695 5694 5692 5690 5684 5678 5678 5683 5686 5691 5694 5695 5696 5697 5698 5700 5702 5703 5704 5704 5704 5704 5704 5703 5702 5702 5702 5701 5701 5700 5700 5701 5701 5701
5690 5689 5688 5687 5685 5684 5684 5683 5682 5678 5671 5675 5677 5681 5684 5687 5688 5689 5691 5693 5695 5696 5697 5697 5697 5697 5697 5696 5696 5696 5695 5695 5694 5694 5695 5696 5696 5697
5679 5678 5676 5675 5674 5674 5674 5674 5673 5672 5666 5665 5668 5671 5673 5675 5677 5681 5683 5685 5686 5688 5689 5689 5689 5690 5689 5689 5688 5688 5688 5687 5687 5688 5689 5691 5692 5693
5666 5665 5664 5664 5663 5663 5663 5663 5663 5663 5660 5656 5657 5659 5661 5665 5667 5670 5673 5675 5676 5678 5680 5681 5681 5681 5681 5681 5680 5680 5679 5679 5680 5681 5683 5685 5687 5689
5654 5654 5653 5653 5651 5651 5652 5652 5653 5653 5652 5650 5647 5648 5651 5654 5656 5659 5662 5664 5667 5668 5669 5670 5671 5672 5672 5671 5671 5670 5670 5670 5671 5673 5675 5678 5681 5684
5642 5642 5642 5642 5641 5642 5643 5643 5643 5642 5641 5640 5638 5639 5641 5643 5645 5645 5647 5651 5653 5657 5658 5659 5660 5660 5660 5660 5660 5659 5659 5660 5662 5664 5667 5670 5673 5677
5629 5629 5629 5631 5632 5633 5633 5632 5633 5632 5630 5629 5628 5629 5630 5631 5632 5633 5634 5636 5640 5642 5643 5645 5647 5647 5647 5647 5647 5647 5647 5649 5651 5653 5657 5661 5665 5670
5616 5616 5618 5619 5621 5622 5623 5625 5625 5624 5622 5621 5620 5620 5620 5621 5622 5624 5622 5623 5623 5628 5628 5630 5632 5631 5632 5633 5634 5634 5635 5636 5638 5642 5646 5651 5656 5662
5607 5608 5610 5610 5611 5612 5614 5615 5615 5617 5618 5616 5614 5613 5613 5614 5614 5614 5613 5612 5611 5614 5614 5614 5617 5616 5619 5619 5620 5620 5621 5622 5625 5629 5633 5639 5646 5653
5599 5600 5599 5600 5603 5604 5605 5605 5606 5607 5609 5610 5609 5608 5609 5608 5607 5606 5604 5603 5603 5604 5602 5599 5601 5601 5604 5605 5605 5606 5607 5609 5611 5616 5621 5627 5634 5642
5592 5592 5593 5594 5596 5598 5599 5598 5599 5600 5603 5605 5605 5604 5604 5604 5602 5599 5596 5592 5589 5589 5589 5586 5586 5587 5589 5590 5591 5592 5593 5595 5598 5603 5608 5614 5622 5630
5584 5585 5588 5589 5591 5593 5593 5593 5592 5592 5595 5597 5597 5597 5596 5595 5594 5590 5587 5582 5578 5575 5576 5574 5573 5572 5573 5576 5578 5579 5580 5583 5586 5591 5596 5601 5609 5617
5581 5580 5582 5585 5587 5588 5589 5589 5589 5588 5589 5589 5587 5587 5587 5586 5584 5582 5579 5575 5570 5566 5566 5564 5561 5559 5558 5560 5564 5566 5568 5570 5574 5579 5584 5590 5596 5603
5580 5579 5580 5582 5584 5584 5585 5586 5586 5586 5584 5582 5580 5578 5577 5576 5575 5574 5572 5568 5565 5561 5558 5556 5552 5549 5548 5548 5550 5554 5557 5559 5562 5567 5573 5579 5585 5591
5580 5580 5580 5580 5581 5581 5582 5582 5582 5580 5577 5575 5572 5570 5569 5568 5568 5566 5564 5561 5559 5555 5552 5549 5545 5542 5539 5538 5538 5540 5544 5548 5551 5556 5563 5568 5574 5580
5577 5577 5577 5577 5577 5578 5577 5577 5576 5574 5572 5569 5566 5565 5564 5562 5560 5557 5553 5549 5546 5543 5544 5541 5538 5534 5531 5529 5529 5529 5532 5535 5540 5546 5552 5558 5563 5569
5573 5571 5571 5572 5572 5571 5571 5571 5570 5569 5567 5564 5562 5560 5558 5555 5552 5549 5545 5540 5535 5531 5530 5531 5530 5527 5524 5521 5520 5520 5522 5527 5531 5536 5542 5547 5552 5557
5572 5569 5569 5569 5568 5568 5567 5566 5564 5563 5562 5560 5558 5555 5551 5548 5545 5542 5538 5533 5528 5524 5522 5520 5519 5518 5516 5515 5513 5512 5515 5518 5523 5528 5532 5537 5542 5546
5569 5568 5567 5567 5566 5565 5564 5563 5561 5560 5558 5556 5553 5550 5546 5543 5539 5536 5532 5527 5522 5518 5515 5513 5510 5507 5504 5504 5507 5507 5507 5510 5515 5519 5523 5527 5530 5535
5568 5567 5566 5566 5565 5564 5563 5561 5559 5556 5554 5551 5548 5545 5542 5538 5535 5530 5525 5521 5516 5512 5509 5507 5504 5501 5499 5497 5498 5501 5503 5503 5506 5510 5514 5518 5522 5527
5566 5566 5566 5565 5565 5564 5562 5559 5557 5553 5551 5547 5544 5541 5537 5534 5529 5525 5520 5518 5512 5507 5503 5500 5500 5501 5498 5496 5493 5493 5496 5498 5499 5500 5505 5509 5513 5518
5567 5566 5566 5565 5563 5562 5560 5557 5554 5551 5547 5544 5541 5537 5533 5529 5525 5521 5516 5511 5506 5502 5499 5497 5497 5496 5492 5488 5485 5485 5488 5492 5494 5496 5498 5500 5501 5506
5568 5567 5566 5564 5562 5560 5558 5555 5552 5549 5546 5542 5538 5534 5530 5525 5521 5516 5512 5507 5502 5498 5494 5491 5489 5487 5484 5481 5479 5478 5481 5482 5484 5487 5489 5493 5496 5499